Location: Newark
(40.9833°N, 0.0333°W)
Time: 01:11:37
(UTC+00:00)

Altair - Pass Details

Date: 31 October 2020
Orbit: 1502 x 1682 km, 47.2° (Epoch: 02 December)

Event Time Altitude Azimuth Distance (km) Brightness Sun altitude
Rises 10:50:54 0° 298° (WNW) 4,764 9.7 33.3°
Reaches altitude 10° 10:54:01 10° 294° (WNW) 3,802 9.3 33.5°
Maximum altitude 11:03:21 54° 221° (SW) 1,921 9.0 33.9°
Drops below altitude 10° 11:12:58 10° 147° (SSE) 3,912 10.8 34.2°
Sets 11:16:15 0° 143° (SE) 4,910 10.9 34.3°
